Regional Weather Roundup
Issued by NWS Memphis, TN

Home | Current Version | Previous Version | Text Only | Print | Product List | Glossary On
Versions: 1 2 3 4 5 6 7 8 9 10 11 12 13 14 15 16 17 18 19 20 21 22 23 24 25 26 27 28 29 30 31 32 33 34 35 36 37 38 39 40 41 42 43 44 45 46 47 48 49 50
000
ASUS44 KMEG 100610
RWRMEG
MEMPHIS CWA HOURLY WEATHER ROUNDUP
NATIONAL WEATHER SERVICE MEMPHIS TN
100 AM CDT THU JUL 10 2014

...WEST TENNESSEE...

CITY           SKY/WX    TMP DP  RH WIND       PRES   REMARKS
MEMPHIS INTL   PTCLDY    74  70  87 CALM      30.04S
6HR MIN TEMP:  74; 6HR MAX TEMP:  84;

NWS MEMPHIS      N/A     70 N/A N/A MISG        N/A
JACKSON        CLEAR     70  66  88 CALM      30.04R FOG
6HR MIN TEMP:  68; 6HR MAX TEMP:  82;

LEXINGTON      CLOUDY    66  66 100 CALM      30.03S VSB 1/4
SAVANNAH       CLEAR     70  70 100 CALM      30.04
DYERSBURG      CLEAR     70  61  73 CALM      30.05S
6HR MIN TEMP:  68; 6HR MAX TEMP:  84;

UNION CITY     CLEAR     66  66 100 CALM      30.03R
PARIS          CLEAR     61  58  90 CALM      30.05R


...EASTERN ARKANSAS...

CITY           SKY/WX    TMP DP  RH WIND       PRES   REMARKS
JONESBORO      CLEAR     70  67  90 CALM      30.05R
6HR MIN TEMP:  70; 6HR MAX TEMP:  85;

WEST MEMPHIS     N/A     73  73 100 CALM      30.03
6HR MIN TEMP:  73; 6HR MAX TEMP:  83;

BATESVILLE     CLEAR     70  66  88 W5        30.06R
6HR MIN TEMP:  70; 6HR MAX TEMP:  86;

NEWPORT        CLEAR     74  73  96 CALM      30.06S
6HR MIN TEMP:  74; 6HR MAX TEMP:  85;

WALNUT RIDGE   CLEAR     72  66  83 W3        30.05S
6HR MIN TEMP:  72; 6HR MAX TEMP:  84;

BLYTHEVILLE    CLEAR     73  70  90 W3        30.04R
6HR MIN TEMP:  72; 6HR MAX TEMP:  84;

SEARCY         MOCLDY    75  73  93 CALM      30.06R
6HR MIN TEMP:  73; 6HR MAX TEMP:  84;

PINE BLUFF     PTCLDY    72  70  93 CALM      30.04R
6HR MIN TEMP:  71; 6HR MAX TEMP:  80;

MONTICELLO     CLOUDY    74  71  91 NE3       30.03S
6HR MIN TEMP:  74; 6HR MAX TEMP:  82; 6HR PCP: TRACE;



...NORTH MISSISSIPPI...

CITY           SKY/WX    TMP DP  RH WIND       PRES   REMARKS
TUPELO         CLOUDY    76  72  87 CALM      30.03F
6HR MIN TEMP:  76; 6HR MAX TEMP:  79;

OLIVE BRANCH   CLEAR     70 N/A N/A CALM      30.05R
TUNICA         PTCLDY    72  72 100 CALM      30.05R FOG
CLARKSDALE     PTCLDY    72  72 100 CALM      30.04F
CORINTH        FOG       72  68  88 CALM      30.04R VSB 1
GRENADA        PTCLDY    70  70 100 CALM      30.04S
GREENWOOD      MOCLDY    73  71  93 NE3       30.03F
6HR MIN TEMP:  73; 6HR MAX TEMP:  84;

COLUMBUS       MOCLDY    74  74 100 S2        30.04F
6HR MIN TEMP:  74; 6HR MAX TEMP:  82;

STARKVILLE     FAIR      70  70 100 CALM      30.04S FOG
GOLDEN TRIANGL MOCLDY    73  70  88 S5        30.04S
6HR MIN TEMP:  73; 6HR MAX TEMP:  84;



...SOUTHEAST MISSOURI...

CITY           SKY/WX    TMP DP  RH WIND       PRES   REMARKS
DONIPHAN         N/A     66  64  94 CALM        N/A
WEST PLAINS    CLEAR     65  61  87 CALM      30.11S
6HR MIN TEMP:  64; 6HR MAX TEMP:  81;

POPLAR BLUFF   MOCLDY    69  65  86 N7        30.05R
6HR MIN TEMP:  68; 6HR MAX TEMP:  84; 6HR PCP: TRACE;

CAPE GIRARDEAU MOCLDY    75  64  68 N6        30.05
6HR MIN TEMP:  72; 6HR MAX TEMP:  84;



...NORTHWEST ALABAMA...

CITY           SKY/WX    TMP DP  RH WIND       PRES   REMARKS
MUSCLE SHOALS  CLOUDY    75  71  87 CALM      30.05S
6HR MIN TEMP:  74; 6HR MAX TEMP:  81;



...MIDDLE TENNESSEE...

CITY           SKY/WX    TMP DP  RH WIND       PRES   REMARKS
NASHVILLE      PTCLDY    74  66  76 CALM      30.03S
6HR MIN TEMP:  73; 6HR MAX TEMP:  84;

CLARKSVILLE    CLEAR     67  62  84 CALM      30.03S
6HR MIN TEMP:  66; 6HR MAX TEMP:  83;

DICKSON        CLEAR     66  64  94 CALM      30.04S
COLUMBIA       CLOUDY    72  72 100 CALM      30.03S
LEWISBURG      MOCLDY    71  68  90 CALM      30.04S


...WESTERN KENTUCKY...

CITY           SKY/WX    TMP DP  RH WIND       PRES   REMARKS
PADUCAH        MOCLDY    70  66  87 SW3       30.03R
6HR MIN TEMP:  69; 6HR MAX TEMP:  85;

FORT CAMPBELL  CLEAR     68  64  87 SW1       30.03S
6HR MIN TEMP:  68; 6HR MAX TEMP:  83;



...CENTRAL ARKANSAS...

CITY           SKY/WX    TMP DP  RH WIND       PRES   REMARKS
LITTLE ROCK    MOCLDY    73  70  90 CALM      30.04S
6HR MIN TEMP:  73; 6HR MAX TEMP:  85;



SKY/WX REPORTED AS FAIR MEANS FEW OR NO CLOUDS BELOW
12 THOUSAND FEET.



USA.gov is the U.S. government's official web portal to all federal, state and local government web resources and services.